#timestamp,LO_Frequency,Hit 
1502748015.5,286047006.7,N
1502748035.3,286047009.2,N
1502748055.1,286047008.7,N
1502748075.9,286047009.6,N
1502748095.7,286047008.5,N
1502748115.5,286047007.1,N
1502748135.4,286047005.4,N
1502748155.2,286047004.1,N
1502748175.0,286047003.6,N
1502748175.9,286047003.6,N
1502748195.7,286047002.9,N
1502748215.6,286047005.1,N
1502748235.4,286047004.9,N
1502748255.2,286047005.1,N
1502748275.1,286047005.6,N
1502748276.0,286047005.6,N
1502748295.8,286047006.6,N
1502748315.6,286047009.1,N
1502748335.5,286047010.0,N
1502748355.3,286047009.4,N
1502748375.1,286047011.6,N
1502748395.9,286047010.7,N
1502748415.7,286047008.8,N
1502748435.5,286047005.2,N
1502748455.3,286047003.0,N
1502748475.2,286047005.0,N
1502748495.0,286047004.8,N
1502748495.9,286047004.8,N
1502748515.7,286047004.9,N
1502748535.6,286047007.2,N
1502748555.4,286047004.6,N
1502748575.2,286047006.4,N
1502748595.1,286047006.6,N
1502748596.0,286047006.6,N
1502748615.8,286047006.9,N
1502748635.6,286047009.2,N
1502748655.5,286047008.6,N
1502748675.3,286047007.9,N
1502748695.1,286047009.2,N
1502748715.9,286047006.4,N
1502748735.7,286047007.0,N
1502748755.5,286047007.6,N
1502748775.3,286047007.4,N
1502748795.2,286047007.0,N
1502748815.9,286047005.2,N
1502748835.7,286047003.0,N
1502748855.6,286047004.1,N
1502748875.4,286047005.1,N
1502748895.2,286047005.6,N
1502748915.1,286047004.1,N
1502748916.0,286047004.1,N
1502748935.8,286047003.9,N
1502748955.6,286047002.8,N
1502748975.4,286047002.7,N
1502748995.3,286047006.0,N
1502749015.1,286047005.4,N
1502749035.8,286047004.9,N
1502749055.7,286047007.1,N
1502749075.5,286047007.2,N
1502749095.3,286047006.0,N
1502749115.2,286047004.7,N
1502749135.9,286047003.7,N
1502749155.7,286047001.3,N
1502749175.6,286047003.8,N
1502749195.4,286047004.9,N
1502749215.2,286047005.7,N
1502749235.0,286047003.3,N
1502749235.9,286047003.3,N
1502749255.8,286047005.6,N
1502749275.6,286047006.0,N
1502749295.4,286047007.4,Y
1502749315.3,286046999.9,N
1502749335.1,286047002.5,N
1502749355.8,286047001.3,N
1502749375.7,286047002.3,N
1502749395.5,286047000.1,N
1502749415.3,286046998.3,N
1502749435.2,286047000.4,N
1502749455.9,286047000.0,N
1502749475.7,286047001.1,N
1502749495.6,286046999.3,N
1502749515.4,286047000.3,N
1502749535.2,286047000.1,N
1502749555.0,286047000.5,N
1502749555.9,286047000.5,N
1502749575.8,286046999.9,N
1502749595.6,286047002.7,N
1502749615.4,286046999.7,N
1502749635.3,286047001.3,N
1502749655.1,286047004.4,N
1502749675.8,286047003.1,N
1502749695.7,286047005.4,N
1502749715.5,286047005.2,N
1502749735.3,286047003.2,N
1502749755.2,286047005.7,N
1502749775.9,286047003.3,N
1502749795.7,286047004.6,N
1502749815.5,286047004.9,N
1502749835.4,286047004.5,N
1502749855.2,286047006.5,N
1502749875.0,286047008.4,Y
1502749876.0,286047008.4,Y
1502749895.8,286046995.3,N
1502749915.6,286046998.0,N
1502749935.4,286046997.9,N
1502749955.3,286046997.5,N
1502749975.1,286046995.8,N
1502749995.8,286046995.6,N
1502750015.7,286046995.0,N
1502750035.5,286046999.6,N
1502750055.3,286046999.0,N
1502750075.2,286046999.4,N
1502750095.9,286046998.8,N
1502750115.7,286046998.2,N
1502750135.6,286046996.9,N
1502750155.4,286046998.5,N
1502750175.2,286046998.5,N
1502750195.0,286046999.1,N
1502750195.9,286046999.1,N
1502750215.8,286046998.1,N
1502750235.6,286047000.4,N
1502750255.4,286047000.5,N
1502750275.3,286047001.0,N
1502750295.1,286046998.5,N
1502750315.8,286047000.2,N
1502750335.7,286047002.2,N
1502750355.5,286047000.7,N
1502750375.3,286047001.2,N
1502750395.2,286047000.9,N
1502750415.9,286047000.7,N
1502750435.7,286047000.5,N
1502750455.5,286046998.5,N
1502750475.4,286046998.5,N
1502750495.2,286047001.0,N
1502750515.0,286046998.6,N
1502750515.9,286046998.6,N
1502750535.8,286046998.1,N
1502750555.6,286046999.9,N
1502750575.4,286047000.0,N
1502750595.3,286047000.2,N
1502750615.1,286047002.1,N
1502750616.0,286047002.1,N
1502750635.8,286047002.5,N
1502750655.7,286046999.7,N
1502750675.5,286046999.9,N
1502750695.3,286046999.8,N
1502750715.1,286047002.4,N
1502750735.9,286047002.2,N
1502750755.7,286047003.9,N
1502750775.5,286047005.9,N
1502750795.4,286047005.6,N
1502750815.2,286047003.3,N
1502750835.0,286047003.5,N
1502750835.9,286047003.5,N
1502750855.8,286047006.0,N
1502750875.6,286047007.1,N
1502750895.4,286047007.5,N
1502750915.3,286047005.8,N
1502750935.1,286047005.6,N
1502750936.0,286047005.6,N
1502750955.8,286047005.6,N
1502750975.6,286047005.9,N
1502750995.5,286047001.3,N
1502751015.3,286047001.5,N
1502751035.1,286047001.7,N
1502751055.9,286047003.5,N
1502751075.7,286047005.2,N
1502751095.5,286047007.1,N
1502751115.4,286047006.6,N
1502751135.2,286047007.4,N
1502751155.0,286047007.4,N
1502751155.9,286047007.4,N
1502751175.8,286047005.0,N
1502751195.6,286047007.6,N
1502751215.4,286047006.8,N
1502751235.3,286047006.5,N
1502751255.1,286047009.1,N
1502751256.0,286047009.1,N
1502751275.8,286047006.1,N
1502751295.6,286047008.8,N
1502751315.5,286047008.0,N
1502751335.3,286047009.5,N
1502751355.1,286047007.9,N
1502751375.9,286047009.0,N
1502751395.7,286047008.2,N
1502751415.5,286047010.2,N
1502751435.4,286047010.2,N
1502751455.2,286047009.9,N
1502751475.0,286047012.4,Y
1502751475.9,286047012.4,Y
1502751495.8,286047005.7,N
1502751515.6,286047005.7,N
1502751535.4,286047006.0,N
1502751555.3,286047005.6,N
1502751575.1,286047005.7,N
1502751576.0,286047005.7,N
1502751595.8,286047003.3,N
